Location: Beuerbach
(48.1459°N, 10.9174°E)
Time: 02:08:41
(UTC+00:00)

RESURS DK-1 - Pass Details

Date: 23 May 2024
Orbit: 541 x 547 km, 69.9° (Epoch: 19 June)

Event Time Altitude Azimuth Distance (km) Brightness Sun altitude
Rises 02:04:37 0° 329° (NNW) 2,721 6.1 -11.2°
Reaches altitude 10° 02:06:50 10° 327° (NNW) 1,824 5.2 -11.0°
Maximum altitude 02:10:53 71° 243° (WSW) 582 2.2 -10.5°
Drops below altitude 10° 02:14:55 10° 160° (SSE) 1,814 4.7 -10.1°
Sets 02:17:06 0° 158° (SSE) 2,703 5.6 -9.8°
